Date String (YYYY-MM-DD hh:mm:ss) UTC,Instrument flags,Ambient pressure (hPa),Sample flow (lpm),Bypass flow (lpm),Sample temperature (°C),Ambient temperature (°C),ASC tube jacket temperature (°C),LED temperature (°C),Box temperature (°C),Sample RH (%),Span deviation,Mass concentration (μg/m³),Mass concentration (μg/m³),Mass concentration (μg/m³)
DateTimeUTC,F1_M11,P_M11,Q1_M11,Q2_M11,T1_M11,T2_M11,T3_M11,T4_M11,T5_M11,U1_M11,ZSPAN_M11,X0_M11,X2_M11,X1_M11
2021-11-17 16:00:00,,0832.2,5.01,0.00,22.3,21.7,00.0,31.4,24.1,13.8,0000.0,0011.79,0004.40,0002.80
2021-11-17 16:01:00,,0832.2,4.99,0.00,22.3,21.7,00.0,31.4,24.1,13.7,0000.0,0011.35,0004.36,0002.81
2021-11-17 16:02:00,,0832.2,5.01,0.00,22.3,21.6,00.0,31.4,24.1,13.9,0000.0,0011.22,0004.40,0002.82
2021-11-17 16:03:00,,0832.2,5.01,0.00,22.3,21.6,00.0,31.4,24.1,14.0,0000.0,0011.16,0004.48,0002.86
2021-11-17 16:04:00,,0832.2,5.00,0.00,22.3,21.6,00.0,31.4,24.0,14.0,0000.0,0010.71,0004.50,0002.87
2021-11-17 16:05:00,,0832.3,4.99,0.00,22.3,21.6,00.0,31.4,24.0,14.1,0000.0,0010.70,0004.52,0002.86
2021-11-17 16:06:00,,0832.2,5.00,0.00,22.2,21.5,00.0,31.4,24.0,14.1,0000.0,0011.06,0004.55,0002.85
2021-11-17 16:07:00,,0832.2,4.99,0.00,22.2,21.5,00.0,31.3,23.9,14.0,0000.0,0010.86,0004.47,0002.83
2021-11-17 16:08:00,,0832.2,5.00,0.00,22.2,21.5,00.0,31.3,23.9,14.0,0000.0,0010.78,0004.44,0002.79
2021-11-17 16:09:00,,0832.2,5.01,0.00,22.2,21.4,00.0,31.3,23.9,14.0,0000.0,0010.71,0004.43,0002.79
2021-11-17 16:10:00,,0832.2,4.99,0.00,22.2,21.4,00.0,31.3,23.9,13.8,0000.0,0010.54,0004.45,0002.78
2021-11-17 16:11:00,,0832.2,5.00,0.00,22.1,21.4,00.0,31.3,23.9,13.9,0000.0,0010.86,0004.44,0002.77
2021-11-17 16:12:00,,0832.2,5.00,0.00,22.2,21.4,00.0,31.3,23.9,14.1,0000.0,0011.23,0004.49,0002.79
2021-11-17 16:13:00,,0832.2,4.99,0.00,22.2,21.4,00.0,31.3,23.9,14.2,0000.0,0011.35,0004.48,0002.78
2021-11-17 16:14:00,,0832.2,5.00,0.00,22.1,21.4,00.0,31.3,23.9,14.1,0000.0,0011.46,0004.46,0002.74
2021-11-17 16:15:00,,0832.3,5.02,0.00,22.1,21.4,00.0,31.2,23.9,13.9,0000.0,0011.54,0004.45,0002.69
2021-11-17 16:16:00,,0832.2,5.01,0.00,22.1,21.4,00.0,31.2,23.9,13.8,0000.0,0013.38,0004.47,0002.67
2021-11-17 16:17:00,,0832.3,4.99,0.00,22.1,21.3,00.0,31.2,23.8,14.0,0000.0,0013.16,0004.42,0002.65
2021-11-17 16:18:00,,0832.3,5.01,0.00,22.1,21.3,00.0,31.2,23.8,14.0,0000.0,0013.31,0004.45,0002.64
2021-11-17 16:19:00,,0832.2,4.99,0.00,22.1,21.3,00.0,31.2,23.8,14.2,0000.0,0013.64,0004.47,0002.62
2021-11-17 16:20:00,,0832.3,5.01,0.00,22.1,21.3,00.0,31.2,23.8,14.2,0000.0,0013.70,0004.47,0002.61
2021-11-17 16:21:00,,0832.3,5.00,0.00,22.1,21.3,00.0,31.2,23.8,14.2,0000.0,0013.37,0004.43,0002.61
2021-11-17 16:22:00,,0832.4,4.99,0.00,22.0,21.4,00.0,31.2,23.8,14.2,0000.0,0013.68,0004.47,0002.59
2021-11-17 16:23:00,,0832.4,5.00,0.00,22.1,21.9,00.0,31.2,24.0,14.0,0000.0,0013.97,0004.48,0002.55
2021-11-17 16:24:00,,0832.3,5.01,0.00,22.2,22.8,00.0,31.2,24.2,14.0,0000.0,0014.29,0004.45,0002.53
2021-11-17 16:25:00,,0832.3,5.00,0.00,22.4,23.2,00.0,31.3,24.4,14.0,0000.0,0014.44,0004.34,0002.52
2021-11-17 16:26:00,,0832.3,5.01,0.00,22.4,23.0,00.0,31.3,24.5,14.0,0000.0,0015.02,0004.32,0002.52
2021-11-17 16:27:00,,0832.3,4.99,0.00,22.5,22.8,00.0,31.3,24.4,13.7,0000.0,0013.87,0004.32,0002.51
2021-11-17 16:28:00,,0832.4,5.01,0.00,22.5,22.6,00.0,31.3,24.4,13.6,0000.0,0014.77,0004.31,0002.51
2021-11-17 16:29:00,,0832.4,5.00,0.00,22.5,22.4,00.0,31.4,24.4,13.8,0000.0,0014.68,0004.31,0002.52
2021-11-17 16:30:00,,0832.4,4.99,0.00,22.5,22.3,00.0,31.4,24.3,13.8,0000.0,0014.40,0004.30,0002.52
2021-11-17 16:31:00,,0832.4,5.01,0.00,22.5,22.2,00.0,31.4,24.3,13.0,0000.0,0014.97,0004.28,0002.44
2021-11-17 16:32:00,,0832.5,4.98,0.00,22.5,22.1,00.0,31.4,24.3,12.5,0000.0,0016.31,0004.24,0002.34
2021-11-17 16:33:00,,0832.5,5.01,0.00,22.5,22.0,00.0,31.4,24.2,12.1,0000.0,0016.52,0004.19,0002.26
2021-11-17 16:34:00,,0832.5,5.01,0.00,22.4,21.9,00.0,31.4,24.2,11.8,0000.0,0015.80,0004.07,0002.18
2021-11-17 16:35:00,,0832.5,5.00,0.00,22.4,21.8,00.0,31.4,24.2,11.5,0000.0,0015.54,0004.04,0002.06
2021-11-17 16:36:00,,0832.5,4.99,0.00,22.4,21.8,00.0,31.4,24.1,11.2,0000.0,0015.12,0004.04,0001.94
2021-11-17 16:37:00,,0832.5,5.01,0.00,22.4,21.7,00.0,31.4,24.1,11.3,0000.0,0014.47,0003.96,0001.84
2021-11-17 16:38:00,,0832.6,4.99,0.00,22.3,21.7,00.0,31.4,24.1,11.2,0000.0,0014.36,0003.88,0001.74
2021-11-17 16:39:00,,0832.5,5.01,0.00,22.3,21.7,00.0,31.4,24.1,11.3,0000.0,0013.26,0003.80,0001.62
2021-11-17 16:40:00,,0832.5,5.01,0.00,22.3,21.7,00.0,31.4,24.1,11.3,0000.0,0013.21,0003.73,0001.51
2021-11-17 16:41:00,,0832.5,4.99,0.00,22.4,21.7,00.0,31.4,24.1,11.2,0000.0,0013.52,0003.72,0001.39
2021-11-17 16:42:00,,0832.5,5.00,0.00,22.4,21.7,00.0,31.4,24.2,11.2,0000.0,0012.73,0003.66,0001.33
2021-11-17 16:43:00,,0832.5,4.99,0.00,22.4,21.7,00.0,31.4,24.2,11.3,0000.0,0011.99,0003.65,0001.30
2021-11-17 16:44:00,,0832.5,5.01,0.00,22.4,21.8,00.0,31.4,24.2,11.3,0000.0,0011.33,0003.63,0001.28
2021-11-17 16:45:00,,0832.5,4.99,0.00,22.4,21.8,00.0,31.4,24.2,11.5,0000.0,0011.00,0003.57,0001.25
2021-11-17 16:46:00,,0832.5,5.00,0.00,22.4,21.8,00.0,31.4,24.2,11.5,0000.0,0010.89,0003.54,0001.25
2021-11-17 16:47:00,,0832.5,5.02,0.00,22.4,21.8,00.0,31.4,24.2,11.6,0000.0,0011.03,0003.52,0001.28
2021-11-17 16:48:00,,0832.5,5.00,0.00,22.4,21.8,00.0,31.4,24.2,11.4,0000.0,0011.19,0003.55,0001.30
2021-11-17 16:49:00,,0832.5,4.99,0.00,22.4,21.7,00.0,31.4,24.2,11.0,0000.0,0010.51,0003.52,0001.30
2021-11-17 16:50:00,,0832.5,4.99,0.00,22.4,21.6,00.0,31.4,24.2,11.0,0000.0,0010.83,0003.50,0001.29
2021-11-17 16:51:00,,0832.5,5.01,0.00,22.4,21.6,00.0,31.4,24.1,11.1,0000.0,0010.82,0003.48,0001.29
2021-11-17 16:52:00,,0832.5,4.99,0.00,22.3,21.6,00.0,31.4,24.1,11.3,0000.0,0010.40,0003.38,0001.30
2021-11-17 16:53:00,,0832.5,5.00,0.00,22.4,21.6,00.0,31.4,24.1,11.5,0000.0,0010.96,0003.35,0001.31
2021-11-17 16:54:00,,0832.5,5.00,0.00,22.4,21.7,00.0,31.4,24.2,11.1,0000.0,0010.90,0003.32,0001.32
2021-11-17 16:55:00,,0832.5,5.01,0.00,22.4,21.7,00.0,31.4,24.2,10.8,0000.0,0010.32,0003.27,0001.32
2021-11-17 16:56:00,,0832.4,4.99,0.00,22.4,21.7,00.0,31.4,24.2,10.9,0000.0,0010.79,0003.30,0001.32
2021-11-17 16:57:00,,0832.5,5.00,0.00,22.4,21.7,00.0,31.4,24.2,11.3,0000.0,0010.82,0003.31,0001.32
2021-11-17 16:58:00,,0832.5,4.99,0.00,22.4,21.7,00.0,31.4,24.2,11.1,0000.0,0010.69,0003.32,0001.31
2021-11-17 16:59:00,,0832.4,5.01,0.00,22.4,21.7,00.0,31.4,24.2,11.1,0000.0,0010.44,0003.27,0001.31
